Tracking 19717 objects as of 24-Jun-2019
HD Live streaming from Space Station
objects crossing your sky now

MICROSAT-R DEB

Track MICROSAT-R DEB now!
10-day predictions


NORAD ID: 44198
Int'l Code: 2019-006CJ
Perigee: 182.9 km
Apogee: 211.4 km
Inclination: 94.6 °
Period: 88.3 minutes
Semi major axis: 6568 km
RCS: Unknown
Launch date: January 24, 2019
Source: India (IND)
Launch site: SRIHARIKOTA (SRI)

Note: This is SATELLITE DEBRIS
aabbcc
Your satellite tracking list
Your tracking list is empty




NASA's NSSDC Master Catalog

Two Line Element Set (TLE):
1 44198U 19006CJ  19152.92952513  .19288591  74233-6  37840-2 0  9998
2 44198  94.6334  41.6610 0021675 159.4045 200.8135 16.30954338  8328
Source of the keplerian elements: AFSPC